Weather in Kolopino

Russia / Republic of Mordovia     54°21′31″N   44°09′04″E
temp.,
°C
wind,
m/s
gust,
m/s
humid.,
%
clouds,
%
prec.,
mm/h
press.,
hPa
HPBL,
m
28 february, sun
sun2800:00−16nnw369787 0.0 1011154
03:00−18nw369777 0.0 1012114
06:00−19nw359841 0.0 1013105
09:00−16nnw359432 0.0 1014244
12:00−13nw358977 0.0 1014452
15:00−11nw368988 0.1 1015541
18:00−14nnw239595 0.0 101738
21:00−17nnw229653 0.0 101921
1 march, mon
mon100:00−18nnw22970 0.0 102120
03:00−18nw22970 0.0 102220
06:00−19nw22988 0.0 102320
09:00−15wnw239512 0.0 1025124
12:00−9w249174 0.0 1024319
15:00−8wsw369287 0.0 1023382
18:00−10sw489799 0.0 1021162
21:00−6sw51194100 0.1 1019507
2 march, tue
tue200:00−4sw61394100 0.3 1015483
03:00−3wsw71496100 2.2 1011672
06:00−1wsw71496100 1.3 1007718
09:000w61299100 3.2 1004829
12:000wnw51099100 1.6 1003670
15:000wnw5109597 2.0 1003783
18:00−1nw4119093 0.4 1004628
21:00−4wnw4129495 0.5 1005435
3 march, wed
wed300:00−3nw5119597 0.2 1005569
03:00−4nw5109597 0.4 1006562
06:00−5nw5119599 0.3 1006475
09:00−4nw6119397 0.6 1008691
12:00−4nw61090100 0.3 1009805
15:00−4nw71192100 0.6 1011943
18:00−5nw51192100 0.3 1012751
21:00−8nw4119399 0.3 1015345
4 march, thu
thu400:00−11wnw379730 0.0 1016140
03:00−12w349730 0.0 101681
06:00−9wsw389796 0.1 1016209
09:00−6wsw5129398 0.1 1014430
12:00−2wsw7149099 0.0 1011679
15:00−1wsw8148699 0.0 1009798
18:00−2wsw61588100 0.0 1008720
21:00−3wsw7178991 0.0 1006739